Regional Weather Roundup
Issued by NWS Kansas City/Pleasant Hill, MO

Home | Current Version | Previous Version | Text Only | Print | Product List | Glossary On
Versions: 1 2 3 4 5 6 7 8 9 10 11 12 13 14 15 16 17 18 19 20 21 22 23 24 25 26 27 28 29 30 31 32 33 34 35 36 37 38 39 40 41 42 43 44 45 46 47 48 49 50
000
ASUS43 KEAX 271410
RWREAX

WEATHER ROUNDUP FOR EASTERN KANSAS AND NORTHWEST MISSOURI
NATIONAL WEATHER SERVICE KANSAS CITY/PLEASANT HILL MO
900 AM CDT SAT AUG 27 2016

KSZ040-057-103>105-MOZ028-029-037-043-271500-
...KANSAS CITY METROPOLITAN AREA...

CITY           SKY/WX    TMP DP  RH WIND       PRES   REMARKS
K.C. INTL      PTSUNNY   70  65  84 S5        30.03F
K.C. DOWNTOWN  MOSUNNY   76  67  73 SE6       30.02F
LEES SUMMIT    MOSUNNY   73  69  87 S6        30.05F
OLATHE - IXD   MOSUNNY   73  68  84 SE7       30.05F
OLATHE - OJC   MOSUNNY   73  70  90 S7        30.04F
LAWRENCE       MOSUNNY   71  69  93 SE7       30.03F

$$

MOZ001>008-011>017-020>025-030>033-038>040-044>046-053-054-271500-
...NORTHERN AND CENTRAL MISSOURI...

CITY           SKY/WX    TMP DP  RH WIND       PRES   REMARKS
ST. JOSEPH     MOSUNNY   70  68  93 S6        30.01F
MOSBY          MOSUNNY   72  66  83 SE5       30.03F
WHITEMAN AFB   PTSUNNY   75  75 100 W8        30.06R
CLINTON        SUNNY     75  73  94 S3        30.08R
SEDALIA        SUNNY     78  73  84 SW7       30.08R
WARSAW         NOT AVBL
CHILLICOTHE    NOT AVBL
KIRKSVILLE     SUNNY     72  68  87 SW7       30.07S

$$

MOZ041-047>049-056>058-063>065-088>090-097-271500-
...EASTERN AND SOUTHERN MISSOURI...

CITY           SKY/WX    TMP DP  RH WIND       PRES   REMARKS
ST. LOUIS INTL CLOUDY    81  68  64 SW10      30.09R
SPIRIT OF STL  CLOUDY    78  71  79 SW7       30.07R
COLUMBIA       SUNNY     76  73  91 S8        30.08S
JEFFERSON CITY MOSUNNY   76  72  87 CALM      30.07S
ROLLA          CLOUDY    74  70  87 S7        30.09S
OSAGE BEACH    CLOUDY    75  73  94 S5        30.09S
SPRINGFIELD    CLOUDY    77  71  82 S6        30.10R
BRANSON        MOSUNNY   75  72  88 CALM      30.11S
JOPLIN         SUNNY     76  71  85 S8        30.09R
WEST PLAINS    MOSUNNY   75  70  84 W3        30.13R

$$

IAZ060-094-KSZ022-034>040-054-083-096-NEZ052-066-093-271500-
...KANSAS...SOUTHEAST NEBRASKA AND IOWA...

CITY           SKY/WX    TMP DP  RH WIND       PRES   REMARKS
TOPEKA         SUNNY     71  68  90 SE7       30.02S
MANHATTAN      SUNNY     70  66  87 CALM      30.03R
EMPORIA        MOSUNNY   72  69  90 S12       30.04R
CHANUTE        CLOUDY    75  72  90 S12       30.06S
WICHITA        MOSUNNY   73  68  84 E12       30.03F
OMAHA          CLOUDY    69  66  90 CALM      30.03R FOG
LINCOLN        PTSUNNY   71  67  87 N6        30.04R
FALLS CITY     PTSUNNY   71  68  90 NW5       30.02S
LAMONI         CLOUDY    68  68 100 SE3       30.05S
DES MOINES     CLOUDY    66  64  93 CALM      30.04R FOG

$$




USA.gov is the U.S. government's official web portal to all federal, state and local government web resources and services.